GFSSW_sfc_temp_093.txt.gz
Temp
62 62 62 62 63 63 63 63 63 63 63 63 63 63 63 63 62 72 80 87 90 78 78 96 96 95 97 93 89 90 72 68 74 74 74 73 71 69 75 85 87 91 90 93 96
62 62 62 62 62 62 62 62 63 63 63 62 62 63 63 63 74 81 86 80 79 79 88 92 89 93 90 91 86 85 74 74 78 81 82 80 78 73 73 81 83 89 94 95 95
62 62 61 61 62 62 62 62 62 62 62 62 62 63 64 66 77 89 80 79 79 81 97 97 97 93 88 93 90 87 76 82 85 89 83 78 76 83 72 77 85 85 88 91 93
61 61 61 61 61 62 61 61 61 61 61 62 62 62 64 76 75 89 78 78 78 90 96 95 94 88 87 87 93 83 77 90 90 91 86 82 86 82 81 79 92 92 92 92 91
61 61 61 60 61 61 61 61 61 61 60 61 62 63 70 78 84 87 78 80 89 89 93 92 89 89 86 91 91 84 87 91 93 92 89 88 85 84 82 90 93 92 91 91 93
60 60 60 60 60 61 60 60 60 60 60 61 62 63 76 76 96 91 91 89 92 91 94 94 92 95 90 89 88 88 89 91 93 93 90 86 87 87 87 91 89 89 90 92 93
60 60 60 60 60 60 60 60 59 59 60 61 63 71 78 83 97 96 95 92 96 96 92 97 98 92 92 87 95 91 85 89 90 93 89 88 80 77 87 88 86 88 90 92 94
60 60 60 60 60 60 59 59 59 60 61 61 63 77 80 95 99 94 97 95 98 100 99 99 97 94 91 95 91 86 87 81 89 92 91 83 69 80 85 84 84 87 90 91 93
60 60 60 60 59 59 58 58 60 64 63 63 70 77 80 83 89 96 97 91 94 98 98 97 94 89 90 84 82 85 78 78 84 92 90 80 67 81 85 83 81 87 89 90 91
59 59 59 59 58 58 57 58 62 64 69 77 83 77 84 84 92 94 98 95 91 90 86 86 87 83 86 82 73 78 79 80 80 87 89 75 76 81 84 84 80 84 87 86 87
59 58 58 59 58 57 61 73 72 74 77 80 82 83 86 94 96 90 94 92 91 86 78 84 79 76 82 85 89 87 84 78 84 90 85 82 76 83 83 84 80 80 83 82 86
58 58 58 58 57 56 66 80 82 84 75 84 84 86 91 94 82 87 94 83 82 76 83 80 75 85 89 88 86 85 84 80 85 89 88 84 82 85 87 81 78 81 81 83 87
58 58 58 57 56 63 81 83 91 89 76 81 86 84 85 91 84 84 89 87 80 78 80 77 82 88 85 84 81 84 84 82 82 85 89 86 80 80 85 88 82 86 87 87 86
58 58 57 55 57 89 83 89 93 90 70 73 78 84 89 88 82 93 92 88 82 78 81 81 88 83 82 80 83 78 88 87 84 80 75 87 73 78 83 82 84 88 89 86 85
58 57 56 52 75 84 86 94 94 87 55 77 81 95 90 83 86 84 93 88 80 80 81 77 81 80 77 80 84 82 89 84 85 81 82 81 76 76 85 82 84 87 87 86 86
57 56 55 67 78 90 93 93 88 66 54 71 80 78 79 83 83 85 85 91 89 82 83 83 89 85 83 87 87 87 85 82 83 82 72 80 79 74 76 80 83 90 89 93 92
56 53 58 81 84 94 93 85 67 59 73 69 73 78 78 77 79 79 77 76 74 69 69 77 78 86 87 82 86 83 79 68 66 68 69 83 79 74 81 84 86 89 91 93 94
53 52 67 85 93 92 87 75 54 59 65 76 76 78 73 78 78 77 75 73 80 78 75 69 65 79 84 82 78 79 80 71 58 65 71 83 71 71 83 87 89 91 94 95 96
52 82 87 96 94 90 78 52 54 65 68 69 74 69 70 76 76 76 75 75 77 79 69 71 69 80 82 85 82 78 74 87 78 81 75 76 73 79 84 84 86 87 89 93 94
82 89 89 94 94 87 74 57 65 70 70 71 65 71 65 70 70 73 72 73 73 76 80 77 66 77 79 82 83 79 86 74 77 64 63 72 68 70 75 77 82 84 79 75 81
81 82 90 97 94 81 63 66 68 72 73 68 66 68 68 69 71 69 70 70 72 75 79 80 74 70 76 74 75 77 75 79 82 78 69 66 65 79 76 79 79 72 73 74 76
87 77 92 95 76 78 70 69 58 69 72 71 68 67 66 69 67 68 67 68 72 76 72 77 76 67 70 77 79 80 79 80 70 68 76 72 64 82 80 81 79 70 66 68 71
83 82 94 91 70 70 71 69 70 69 67 66 66 66 71 66 61 67 67 70 73 73 72 75 70 63 64 72 77 74 78 80 82 81 71 69 63 79 80 78 80 76 74 69 70
82 75 81 85 82 73 68 66 65 70 68 68 65 71 67 66 71 63 65 68 72 72 60 68 72 67 60 67 75 69 72 76 78 70 73 73 64 72 75 74 76 76 76 76 76
82 73 74 69 72 72 71 69 63 63 69 70 66 66 67 62 64 65 68 69 71 67 72 74 65 67 68 70 73 73 72 72 71 75 70 67 67 71 73 74 75 76 75 74 73
78 78 79 74 70 71 62 66 64 64 67 64 63 66 67 64 65 63 67 69 68 71 71 72 64 65 64 66 68 66 70 69 71 71 74 70 64 73 74 75 73 74 74 72 72
85 83 79 62 70 70 67 65 63 66 67 68 66 65 63 64 70 72 74 72 72 68 65 66 67 62 57 67 64 59 68 70 71 73 73 67 68 72 70 70 71 71 71 71 71

GFSSW_sfc_temp_096.txt.gz
Temp
63 63 63 63 62 63 63 63 63 63 63 63 63 63 63 63 63 70 75 87 88 80 81 93 92 92 94 91 91 86 64 61 69 66 69 75 72 72 72 71 79 91 89 91 95
62 62 62 62 62 62 62 62 63 63 63 63 63 63 63 63 71 77 87 82 81 81 88 89 87 91 88 89 90 72 62 67 80 78 73 73 72 69 69 76 84 86 92 94 95
62 62 62 62 62 62 62 62 62 62 62 62 62 63 63 67 72 85 86 80 80 83 93 95 96 92 86 91 89 76 63 82 83 86 80 72 73 72 68 69 83 84 87 91 92
62 61 61 61 62 62 62 62 61 61 62 62 62 63 63 71 71 87 80 80 79 91 90 93 92 87 85 85 91 68 70 78 87 87 84 78 80 76 74 68 82 91 91 91 91
61 61 61 61 61 61 61 61 61 61 61 62 62 63 67 73 81 87 79 80 89 88 87 89 88 88 83 89 91 73 67 76 92 89 84 84 81 79 69 69 81 92 91 90 92
61 61 61 60 61 61 61 61 60 60 60 61 62 63 68 71 98 92 92 89 92 88 89 93 92 94 90 90 90 92 73 76 92 91 86 81 80 82 75 78 87 89 89 91 92
60 60 60 60 61 61 61 60 60 60 60 61 62 69 73 81 99 97 94 91 94 92 89 97 98 93 92 88 96 94 85 86 92 91 85 87 78 79 85 89 87 87 89 91 92
60 60 60 60 60 60 60 59 59 60 62 62 63 73 72 97 101 96 96 93 97 97 97 100 100 94 91 95 92 87 87 76 90 92 89 83 68 81 86 85 84 87 89 90 92
60 60 60 60 60 60 59 59 60 63 65 63 67 72 77 88 90 96 98 91 95 96 98 101 95 88 90 83 81 83 76 78 80 93 83 82 63 75 85 84 84 86 88 89 90
59 59 60 59 59 59 58 58 64 62 67 75 79 73 82 83 92 95 99 97 91 92 90 89 85 80 82 80 69 75 77 80 77 86 81 74 67 71 82 83 83 85 87 88 89
59 59 59 59 59 57 60 71 69 69 76 77 80 81 88 94 97 92 96 92 92 88 77 82 75 73 79 83 85 85 83 77 76 77 74 67 65 69 80 82 82 83 84 85 87
59 58 58 59 57 56 62 75 84 87 74 82 85 87 93 95 83 88 96 84 82 75 81 79 72 83 87 87 84 83 83 77 77 80 72 68 62 70 81 82 83 83 82 83 82
59 58 58 57 56 60 77 84 93 92 75 81 85 86 88 91 83 84 89 86 80 76 78 75 80 87 85 84 81 82 82 76 67 68 84 76 60 55 79 85 83 83 85 85 83
58 58 57 55 58 85 83 92 95 93 67 74 78 84 88 89 81 93 92 87 83 76 79 79 87 84 83 81 84 77 88 85 78 76 73 84 64 69 76 74 71 73 82 84 86
58 58 56 54 71 82 89 96 95 88 51 76 80 95 90 81 85 85 94 88 79 79 81 77 81 81 79 81 86 80 90 81 81 78 80 80 71 75 76 65 64 66 81 85 89
57 56 55 67 72 85 95 95 89 64 52 72 80 79 78 81 84 87 85 89 89 82 83 82 90 87 85 87 88 89 85 85 82 79 69 77 76 71 70 62 67 68 83 84 85
55 54 56 80 81 96 95 86 64 57 74 69 72 78 77 76 79 80 76 75 73 67 70 78 81 87 87 81 86 84 80 68 64 66 66 81 76 67 65 64 76 75 86 80 78
54 53 65 80 92 95 89 73 52 56 67 77 77 77 72 77 78 77 74 72 78 78 74 68 66 79 86 82 79 80 80 69 57 62 68 80 65 71 85 89 91 89 90 81 73
53 81 81 90 90 94 78 53 46 60 71 72 76 70 71 77 77 75 74 74 78 81 69 69 70 84 86 87 84 78 73 85 75 77 71 69 72 79 84 85 87 83 80 74 83
74 85 87 97 98 89 63 43 57 74 74 74 65 69 67 72 71 72 72 78 78 81 82 74 63 81 81 85 84 79 86 72 75 60 60 65 65 66 75 74 78 75 76 72 76
76 79 92 99 96 68 45 53 71 75 76 70 68 63 69 68 72 71 70 74 77 77 80 77 71 71 79 74 73 75 73 76 78 75 64 58 62 79 77 74 72 71 71 72 75
83 72 94 97 74 76 69 71 61 72 76 73 71 68 65 69 69 61 64 70 76 77 71 78 74 65 71 81 83 82 77 78 67 65 71 56 60 68 75 76 72 70 70 72 74
78 84 96 93 53 67 73 71 73 72 71 70 69 70 72 63 62 65 67 74 76 76 67 72 71 62 66 73 78 74 78 81 81 80 61 60 59 67 67 71 73 70 71 72 73
79 73 83 86 83 75 70 69 67 73 71 71 68 73 67 66 70 65 68 72 75 76 65 71 71 63 55 62 73 69 74 78 78 69 71 61 65 71 67 68 72 74 75 75 74
82 75 77 69 73 74 73 71 66 65 72 73 68 69 66 60 64 64 70 70 74 68 75 74 62 67 69 71 73 74 73 76 72 74 60 62 64 65 70 69 71 74 74 73 73
76 75 81 75 74 73 64 67 67 67 69 66 65 70 70 63 63 55 67 70 68 73 72 74 63 66 65 70 71 69 75 76 75 75 68 67 58 65 70 71 70 73 72 71 72
85 85 79 66 73 71 68 67 66 68 69 71 69 67 67 67 72 69 76 74 72 69 68 67 66 62 58 67 64 60 69 71 72 75 69 59 60 71 70 71 70 71 71 70 71

GFSSW_sfc_temp_102.txt.gz
Temp
62 62 62 62 62 62 62 63 63 63 63 63 63 62 62 62 62 60 58 72 70 78 81 81 78 78 78 74 80 72 60 58 65 66 66 71 68 71 70 77 80 83 79 80 84
62 62 62 61 62 62 62 62 62 62 62 62 62 62 62 62 57 56 71 77 78 79 77 76 74 76 69 73 76 67 57 59 69 70 69 70 69 68 68 69 75 79 83 84 81
61 61 61 61 61 61 62 61 61 61 62 62 61 62 62 61 55 66 78 78 80 79 80 79 78 76 68 74 74 66 61 66 70 74 77 71 67 73 66 63 66 75 79 80 80
61 61 61 61 61 61 61 61 61 61 61 62 61 62 62 55 58 78 80 78 80 79 79 77 75 68 67 67 75 64 69 73 71 76 74 71 73 68 72 70 77 84 84 81 80
61 61 61 61 61 61 60 61 61 61 60 61 62 62 57 54 61 81 80 79 78 78 76 75 71 70 66 71 72 68 70 73 73 72 75 77 73 72 70 77 81 86 84 81 80
61 60 60 60 60 61 61 60 60 60 60 61 62 62 54 53 80 80 79 78 78 75 74 76 75 77 72 74 71 76 75 73 71 73 78 70 69 73 73 77 77 84 81 83 82
61 61 61 61 61 61 60 60 60 60 60 61 62 62 58 62 82 79 77 73 75 74 73 79 80 73 73 72 79 79 71 76 71 72 73 73 63 64 73 74 79 83 81 80 82
60 61 61 61 60 60 60 59 59 60 61 61 63 57 52 77 76 78 77 74 78 74 77 79 82 76 72 77 77 67 66 65 70 71 74 72 56 65 70 72 73 82 82 80 82
60 60 60 60 60 59 58 58 59 61 62 64 53 50 55 78 73 78 80 78 77 73 76 88 78 71 72 65 59 61 56 63 68 74 72 69 58 65 70 69 71 77 80 79 82
59 59 59 59 59 58 57 58 59 59 64 66 66 54 63 71 76 82 81 83 75 74 75 72 68 61 60 57 49 55 57 64 64 66 68 63 61 67 68 69 70 77 79 77 79
59 59 59 58 57 56 53 55 55 53 54 58 60 62 72 74 81 81 83 79 74 69 61 66 59 54 61 62 65 64 63 64 64 68 62 63 59 63 68 69 69 77 75 76 79
59 58 58 57 56 55 50 52 62 64 57 65 70 69 75 72 72 78 82 72 68 61 63 60 54 65 69 69 67 65 62 59 64 68 65 64 62 66 68 70 74 76 74 77 78
58 58 57 57 56 50 52 60 71 69 55 66 67 68 70 74 71 73 77 72 67 62 62 56 63 72 69 66 65 64 59 60 60 63 64 64 61 61 65 73 77 79 76 80 78
58 58 57 55 52 58 61 68 68 69 47 59 62 72 75 76 70 83 80 73 68 64 64 62 71 71 66 64 66 54 71 71 64 58 54 63 48 58 63 63 72 78 77 78 79
58 57 56 55 51 58 70 68 73 65 37 67 64 81 72 69 72 74 83 72 65 68 64 61 66 66 65 68 71 66 74 73 66 57 56 57 51 53 62 62 69 71 77 79 82
57 56 55 52 49 59 66 68 65 49 41 59 70 67 65 68 70 76 75 74 74 67 66 66 74 70 69 75 75 77 70 66 60 53 46 56 54 54 55 64 66 72 72 77 80
55 54 53 62 62 67 68 62 47 42 61 59 57 62 63 61 67 70 67 61 57 49 50 63 66 72 75 66 69 68 56 45 44 48 47 57 55 59 64 68 71 71 72 72 69
54 53 52 60 59 65 62 54 41 54 52 61 62 65 59 64 62 68 63 58 63 59 52 50 52 66 73 68 62 59 58 48 44 45 49 59 51 59 69 72 73 74 70 70 70
52 50 53 62 62 62 57 41 41 52 60 61 61 56 56 66 65 63 62 60 64 62 52 50 54 71 74 75 71 59 55 62 54 48 51 52 55 64 67 65 70 67 71 70 69
51 57 62 71 69 61 51 43 47 60 65 62 52 56 52 56 58 58 59 64 66 69 63 57 50 61 70 72 69 65 65 59 52 44 41 47 49 48 57 61 66 66 64 67 65
55 59 68 71 66 54 42 44 55 64 66 59 55 53 50 53 57 54 58 63 68 66 64 53 52 57 63 58 58 60 55 54 54 49 44 42 44 60 60 62 62 64 65 63 64
54 53 73 68 56 45 44 50 59 63 65 62 61 57 52 53 53 55 56 59 68 64 57 55 51 47 55 65 69 63 58 54 49 47 47 44 48 62 61 62 63 63 63 64 65
53 55 68 69 48 46 50 60 62 63 60 61 58 59 55 51 51 59 61 70 69 63 54 58 49 46 51 56 61 58 59 54 53 49 47 45 46 61 62 61 63 63 64 64 64
54 54 60 59 54 54 52 54 55 68 64 62 57 59 54 55 54 56 59 69 71 65 67 61 48 49 46 48 53 54 60 59 53 47 45 45 52 56 58 58 60 63 65 65 65
56 54 57 51 55 52 55 56 57 56 61 61 58 59 54 45 53 52 57 59 69 66 64 58 47 49 53 59 60 59 59 60 54 55 50 50 53 58 59 59 59 63 66 66 66
55 55 57 52 54 56 50 49 57 59 58 55 55 59 56 49 51 48 51 52 52 61 55 54 47 51 51 59 59 56 61 60 60 58 54 53 51 60 64 63 62 64 64 63 64
59 60 57 53 51 51 50 54 59 60 60 62 59 56 55 58 59 55 54 53 54 52 53 51 47 47 44 52 53 48 55 59 58 59 57 50 55 62 61 62 60 62 62 61 61

GFSSW_sfc_temp_105.txt.gz
Temp
62 62 62 61 62 62 62 62 62 62 62 61 62 62 62 62 61 58 57 70 69 77 80 76 75 75 75 72 77 73 59 57 62 62 61 65 68 70 72 74 78 80 74 75 77
61 61 61 61 61 61 61 61 61 61 61 62 61 61 62 62 55 54 69 76 77 79 76 72 70 72 67 70 73 65 58 59 68 65 65 68 70 68 71 71 72 73 77 77 76
61 61 61 61 61 61 61 61 61 61 61 61 61 61 62 60 54 65 77 77 78 78 78 77 75 73 65 69 69 66 60 64 69 70 67 70 68 70 70 66 72 70 72 74 73
61 61 61 61 61 61 61 61 61 61 61 61 61 62 62 54 55 74 79 77 78 76 76 74 71 65 64 64 70 63 69 68 67 72 71 68 71 67 71 71 77 78 77 74 73
61 61 60 60 60 60 61 61 60 60 61 61 61 62 56 51 60 78 79 77 75 74 72 71 68 66 63 67 69 65 70 73 72 71 71 72 70 67 69 76 80 79 76 74 74
61 60 61 61 61 61 60 60 60 60 60 61 61 62 51 53 75 77 75 74 74 72 71 72 72 72 68 68 68 71 71 72 71 73 74 70 69 72 74 77 79 77 75 76 77
60 60 61 61 61 60 60 60 60 59 60 60 62 61 54 61 77 75 74 67 72 72 69 74 76 72 69 67 74 75 65 72 71 72 68 73 65 65 73 73 77 77 76 77 78
60 60 60 60 60 60 59 59 59 59 60 61 62 55 52 74 72 74 73 70 72 68 70 75 78 71 68 71 72 64 65 61 68 72 69 71 58 67 71 70 72 77 77 77 78
60 60 60 59 59 59 58 58 59 60 61 63 51 49 54 74 69 74 75 74 72 67 68 84 77 68 68 62 57 58 52 63 62 72 69 66 59 66 69 70 70 78 77 78 77
59 59 59 59 58 57 56 58 58 59 62 64 63 51 61 67 72 76 75 78 71 71 71 70 65 59 56 56 48 53 54 58 62 67 68 62 61 65 68 68 70 72 75 77 76
59 58 58 58 57 56 52 53 53 51 53 58 59 63 68 73 76 76 78 74 68 66 59 63 56 52 59 61 63 62 62 57 61 64 62 59 61 63 68 68 68 69 70 75 75
59 58 58 57 56 55 49 52 60 63 54 61 65 65 71 69 66 72 77 68 64 58 62 57 53 63 67 66 64 62 61 56 60 65 62 59 61 64 68 67 69 70 70 74 75
58 58 58 57 55 51 50 58 64 61 50 61 62 65 67 69 66 68 74 69 63 58 58 54 61 69 67 62 63 56 56 56 57 63 64 59 59 61 67 70 71 73 73 76 75
58 58 57 55 52 55 57 62 64 64 46 57 59 69 70 70 65 79 76 72 64 61 61 58 67 67 61 61 63 48 66 66 61 55 52 65 48 56 62 65 69 72 75 74 76
57 57 56 54 48 57 67 61 61 62 37 65 64 75 68 67 69 71 77 71 63 63 61 58 62 62 60 63 67 62 72 67 61 54 53 57 50 50 60 59 63 70 75 76 77
57 56 55 51 49 56 61 62 63 48 41 58 65 63 63 64 67 73 71 72 71 64 61 63 69 67 65 69 70 74 66 61 55 50 45 56 53 50 55 61 64 68 75 77 78
55 54 53 59 62 61 62 60 47 40 58 56 56 59 56 56 63 67 64 58 55 48 47 59 63 67 71 60 64 63 54 42 41 43 44 51 52 57 63 68 69 69 72 76 78
53 52 51 57 55 62 60 54 39 52 52 58 60 59 54 62 62 62 60 56 57 56 48 47 49 63 68 64 59 56 56 45 39 40 45 52 48 56 65 72 72 76 69 70 71
52 49 51 58 57 57 56 40 42 47 58 58 57 52 50 60 62 60 58 55 61 59 51 46 51 67 70 69 69 56 53 58 48 44 47 48 52 61 65 63 67 65 68 68 69
49 56 60 65 64 60 50 42 45 56 62 58 49 52 47 52 56 54 56 59 61 65 57 53 47 57 66 69 65 61 63 53 48 41 38 45 45 48 56 59 61 63 62 64 66
54 59 66 63 64 53 43 44 52 60 61 56 51 50 48 51 53 53 52 60 63 62 60 50 49 55 59 55 56 58 53 51 50 46 41 39 45 61 60 63 62 62 63 64 65
52 54 66 67 55 42 45 49 56 59 62 60 58 54 51 54 52 54 54 56 66 59 53 53 48 46 52 61 62 56 54 52 47 43 42 43 47 61 62 63 64 62 63 64 64
52 52 64 67 48 45 47 56 58 60 58 58 56 56 56 53 51 57 59 67 66 64 56 55 47 44 50 54 59 56 56 47 49 46 43 42 47 61 62 61 63 62 63 63 64
54 54 57 57 49 48 49 51 54 63 60 57 54 56 55 51 52 49 57 65 67 63 66 59 45 45 43 47 50 50 55 54 49 47 43 45 52 57 58 58 59 61 63 63 63
53 52 53 49 53 50 49 52 54 53 58 58 55 54 50 44 48 49 57 58 65 64 60 55 48 49 54 56 57 54 55 57 51 53 48 52 54 56 59 59 58 60 63 63 62
52 52 53 48 51 50 47 46 53 55 55 53 52 56 53 48 45 45 50 52 51 59 56 53 47 48 49 58 57 54 58 57 55 54 52 55 54 60 62 59 60 63 62 60 61
55 55 55 49 49 49 46 50 55 57 56 58 57 53 53 55 56 55 56 51 50 50 53 51 48 45 41 51 56 48 53 54 53 56 58 53 56 58 57 59 61 62 62 60 61

GFSSW_sfc_temp_108.txt.gz
Temp
62 61 61 61 61 61 61 62 62 62 62 62 62 61 61 61 61 56 55 70 68 77 78 74 73 71 72 69 75 74 58 56 60 62 60 65 67 72 73 72 76 75 72 72 73
62 62 62 61 61 61 61 61 61 61 61 61 61 62 61 62 54 52 68 76 77 78 73 70 67 70 64 68 69 64 57 60 68 65 63 65 67 68 69 68 67 68 72 73 72
61 61 61 61 61 61 61 61 61 61 61 61 61 61 62 60 51 63 77 77 78 77 76 75 72 70 63 66 67 66 60 66 67 67 66 67 68 70 68 64 69 65 67 70 70
61 61 61 61 61 61 61 61 61 61 61 61 61 61 62 54 52 70 77 77 78 74 75 73 69 64 62 63 69 62 69 68 69 70 67 65 70 67 71 69 74 72 71 71 69
61 61 60 61 61 61 61 61 60 60 60 61 61 61 55 51 59 75 79 78 73 71 71 69 66 64 62 65 67 64 69 70 71 71 69 68 65 69 70 74 76 75 73 70 71
61 60 60 61 60 61 61 60 60 60 60 60 61 62 50 53 72 74 73 71 70 69 68 70 68 70 66 66 65 69 69 69 72 70 70 68 64 67 71 76 74 73 71 71 72
60 60 60 60 60 60 60 59 59 59 59 60 61 60 53 61 74 72 70 64 68 70 66 69 73 69 67 64 71 69 63 69 70 70 69 71 62 64 73 75 72 71 71 72 73
60 60 60 60 60 59 59 59 59 59 60 61 62 54 52 71 69 72 69 69 71 67 69 70 74 69 66 69 69 62 61 57 67 70 70 69 57 67 71 72 70 71 72 73 74
59 59 59 59 58 59 57 57 59 60 62 62 49 47 55 71 66 72 72 70 68 64 67 83 72 64 66 60 55 56 50 59 61 70 68 64 58 66 69 70 69 71 72 73 73
59 59 58 58 58 57 56 57 60 59 62 63 62 49 61 64 68 72 71 75 68 66 66 65 61 56 55 54 48 50 51 58 61 66 68 62 62 66 67 68 69 71 72 72 73
59 58 58 57 57 56 51 51 52 51 51 57 58 60 66 71 71 71 74 72 66 59 54 59 54 50 55 60 60 60 56 57 61 63 61 59 60 63 64 66 67 68 71 73 73
58 58 58 57 57 56 49 52 58 59 52 59 62 62 67 65 63 69 74 66 61 54 57 56 51 60 64 63 62 60 55 55 60 65 63 59 60 65 66 67 67 68 68 73 71
58 58 57 57 56 51 49 57 63 58 48 59 59 61 63 67 64 66 70 65 60 56 56 53 58 66 65 60 61 54 54 54 55 61 62 62 58 60 66 69 69 71 72 74 71
58 57 57 55 50 53 55 58 61 61 46 57 57 66 66 66 62 75 73 69 61 58 59 56 64 64 60 59 60 49 65 63 58 53 49 62 48 57 62 64 67 69 69 71 72
57 57 56 55 48 55 61 57 57 59 37 63 62 72 65 61 66 67 75 69 60 61 59 56 60 60 58 61 64 60 67 64 61 54 51 55 50 55 61 59 63 67 71 73 74
57 56 55 51 49 54 58 56 60 47 39 56 63 60 59 61 64 69 68 70 69 63 59 60 65 64 63 65 67 69 61 58 53 51 44 51 52 50 56 61 64 66 71 73 75
55 54 53 57 59 58 59 60 46 39 56 55 53 56 53 54 60 64 61 56 54 48 45 57 59 63 67 58 60 60 49 42 40 42 42 48 51 53 61 66 68 66 71 73 75
53 51 51 55 52 56 60 53 39 50 49 56 56 56 52 55 56 60 58 54 57 53 46 47 47 59 65 61 56 54 53 43 38 39 43 49 47 56 63 68 73 72 73 72 73
52 48 49 55 55 53 56 40 41 46 55 55 54 50 49 56 59 57 55 54 58 57 49 44 48 63 66 65 66 53 50 55 46 42 44 46 51 59 63 64 69 66 69 71 72
48 53 58 61 59 59 50 42 45 53 57 55 46 49 46 51 55 52 53 57 58 62 55 51 46 55 62 65 62 58 60 50 46 40 38 44 46 48 57 57 62 64 65 65 67
53 58 63 59 60 54 43 42 50 57 58 52 51 50 47 51 52 52 51 58 60 59 58 49 48 53 56 52 55 55 50 48 48 44 41 39 44 59 60 60 61 63 65 65 66
52 55 63 62 54 40 45 47 55 57 58 56 57 53 51 51 51 53 52 55 64 59 55 51 46 45 50 57 57 54 51 50 46 43 41 43 45 62 62 64 63 62 64 64 65
52 51 62 63 47 45 48 53 55 57 54 55 57 58 53 47 47 51 56 64 64 60 56 54 45 41 47 51 56 53 52 46 46 45 42 44 45 61 62 62 63 62 63 63 64
54 53 56 53 46 46 45 48 50 60 56 54 51 55 50 49 48 49 54 62 64 62 64 60 46 44 42 44 48 49 54 52 49 46 43 44 51 57 58 59 61 62 63 63 64
51 49 50 49 51 44 46 50 52 51 56 55 53 51 47 44 49 49 53 57 62 63 58 55 47 48 49 53 55 53 53 53 49 49 50 49 52 57 59 59 61 62 62 61 61
51 52 49 45 47 46 46 44 49 52 52 51 50 54 51 44 44 45 49 51 52 57 54 55 50 47 49 57 57 52 54 54 53 52 51 52 52 61 62 61 60 61 61 60 61
51 52 54 47 46 46 45 48 53 53 53 55 53 51 51 51 52 49 48 51 47 51 53 50 48 46 41 48 55 48 49 50 52 54 54 50 55 59 57 59 58 57 58 59 60

GFSSW_sfc_temp_114.txt.gz
Temp
62 62 62 62 62 62 62 62 62 62 62 62 62 62 62 62 62 73 77 84 83 78 78 89 90 90 90 87 87 84 70 67 63 61 61 71 74 80 83 81 84 86 87 85 89
62 62 62 62 62 62 62 62 62 62 62 62 62 62 62 62 72 76 84 78 77 78 88 86 85 88 86 85 86 79 72 68 73 68 64 70 74 78 79 78 80 84 87 88 89
62 62 62 62 62 62 62 62 62 61 61 61 62 62 62 66 73 85 78 78 78 80 93 93 91 89 84 87 84 79 71 76 73 73 69 69 74 82 80 76 81 79 82 85 87
61 61 61 62 62 62 62 62 62 61 61 61 61 62 62 73 72 86 77 77 78 90 92 89 88 83 83 80 85 75 79 78 69 71 69 67 75 75 79 82 87 87 87 87 86
61 61 61 61 61 61 61 61 61 61 61 61 62 62 68 73 79 89 78 79 86 90 88 86 84 85 80 83 83 80 78 79 72 74 73 73 73 72 78 84 88 88 87 87 89
61 60 61 61 61 61 61 61 60 60 61 61 62 62 71 71 87 89 88 87 89 89 89 90 87 89 85 83 82 83 81 79 74 68 68 67 67 72 80 86 85 85 87 89 89
61 60 60 60 60 60 60 60 60 60 60 61 62 68 71 79 87 88 90 89 91 92 88 92 91 86 87 82 87 84 77 78 71 66 65 68 63 67 81 85 83 85 87 88 89
60 60 60 60 59 59 58 58 59 60 61 62 63 71 74 86 89 86 88 87 92 91 92 92 92 89 85 88 84 81 79 71 69 64 65 67 60 69 81 82 82 84 86 86 87
60 59 60 59 59 58 57 57 59 61 62 63 69 71 76 80 83 89 91 85 88 90 90 91 89 85 84 80 79 80 73 69 64 69 67 63 61 66 72 78 82 84 86 86 87
59 59 59 59 58 58 56 58 62 63 68 72 73 68 81 80 85 87 90 90 86 85 83 83 83 80 81 79 71 75 76 75 63 67 70 71 65 64 67 75 82 84 85 86 87
59 59 58 58 58 57 62 72 72 69 71 74 77 75 80 86 89 85 89 86 86 83 76 80 76 73 79 82 80 81 80 74 73 68 66 68 64 65 65 69 79 81 85 87 88
58 58 58 58 58 57 66 78 79 79 71 78 76 76 81 84 78 83 91 80 78 74 80 75 71 81 84 81 79 80 78 74 72 73 69 66 69 73 66 67 82 82 83 86 88
58 58 57 56 57 61 76 80 85 83 73 76 79 79 81 83 80 79 85 82 77 75 75 75 79 82 79 78 77 79 77 76 73 74 77 72 63 67 65 70 82 86 87 86 86
58 58 57 56 58 81 79 83 85 82 72 71 77 79 81 83 77 88 89 84 78 74 77 78 80 77 77 77 80 76 80 78 75 73 64 77 54 67 64 69 77 84 87 89 90
58 57 56 52 74 80 81 87 85 81 56 74 77 88 84 79 81 80 90 84 76 76 76 74 76 75 74 77 81 77 81 79 79 78 73 71 62 62 68 63 66 77 84 90 92
56 56 55 63 73 82 85 84 81 66 51 69 77 75 76 79 80 82 81 86 85 77 78 77 85 82 81 83 81 81 79 78 77 77 66 74 73 64 67 71 74 75 78 87 92
55 53 57 74 83 85 85 81 68 60 71 66 69 74 74 74 75 76 74 74 72 66 67 73 75 82 84 78 82 80 76 65 63 65 67 76 72 75 80 79 78 77 78 86 91
53 53 59 76 84 81 82 76 57 63 66 74 72 73 70 74 75 75 73 71 76 76 73 67 63 76 81 79 75 76 75 65 55 63 69 72 67 73 82 87 85 82 78 87 90
52 76 81 86 82 80 78 68 63 66 70 69 72 67 69 72 73 73 73 73 76 78 69 68 68 81 82 83 83 76 72 81 71 77 71 73 75 73 78 80 82 83 81 76 86
79 85 84 84 85 83 78 58 67 72 72 72 64 67 64 69 69 71 71 76 74 79 82 73 65 78 81 84 83 81 84 71 74 62 59 69 71 73 71 77 80 81 81 75 81
79 82 85 89 85 83 69 67 70 76 74 69 67 66 67 66 71 69 68 73 77 78 80 79 73 72 79 74 74 75 74 77 80 75 67 65 71 81 75 77 81 83 81 80 81
85 77 87 89 78 79 72 71 59 73 76 73 72 69 67 67 68 68 65 72 76 79 72 78 76 68 71 82 85 83 78 78 69 66 73 72 67 77 79 78 81 82 81 84 83
84 82 90 86 73 74 72 72 73 72 72 71 70 71 71 67 60 65 67 75 76 76 73 77 71 64 67 74 79 76 80 83 82 81 70 69 73 76 77 78 78 73 74 76 79
81 74 81 85 81 74 70 69 68 74 72 72 71 72 69 65 67 61 65 73 75 75 65 71 72 68 62 69 77 72 75 79 80 72 74 74 73 72 74 72 69 69 71 73 77
82 76 73 74 75 75 73 70 66 65 72 73 69 69 67 64 66 65 63 71 75 66 73 74 64 70 71 73 74 75 75 76 75 77 73 76 77 79 78 77 71 71 70 71 71
78 78 79 76 71 72 65 67 66 67 69 67 65 68 70 64 65 63 63 67 63 73 73 74 64 69 66 71 73 71 73 76 75 76 77 78 74 80 81 77 74 70 67 65 71
79 79 78 61 71 72 71 68 67 69 70 71 68 68 67 67 71 73 74 71 69 64 68 67 66 64 62 68 69 64 67 71 72 74 76 74 75 79 73 71 66 64 64 64 64

GFSSW_sfc_temp_117.txt.gz
Temp
63 63 63 62 63 62 63 63 63 63 62 63 63 63 62 62 62 74 81 86 89 79 77 96 96 96 97 94 93 90 70 67 68 66 66 76 76 85 89 86 90 92 90 92 96
63 63 63 63 63 63 62 63 62 62 62 62 62 62 62 62 73 82 85 80 80 79 89 92 90 93 91 92 90 80 71 71 77 76 72 77 79 80 83 84 85 89 92 94 96
63 63 62 63 63 63 63 63 62 63 62 62 62 62 62 66 77 88 80 79 79 82 96 97 97 93 89 94 86 82 72 78 78 77 75 75 77 87 83 78 86 84 87 92 93
62 62 62 62 62 62 62 62 62 62 62 62 62 62 63 74 74 89 79 79 79 90 95 94 93 88 87 86 90 76 82 83 73 73 75 75 84 82 83 83 92 91 91 92 91
62 62 62 62 62 62 62 61 62 62 62 62 62 62 70 77 83 91 78 80 89 90 92 92 89 90 86 89 88 76 83 82 77 74 73 78 76 80 83 89 93 92 91 91 93
62 61 61 61 61 61 61 61 61 61 61 62 62 61 72 74 95 96 94 89 94 92 93 94 92 95 90 89 83 87 82 82 78 72 72 75 75 82 86 92 90 90 90 93 93
61 61 61 61 61 60 60 60 60 61 61 61 62 71 76 82 94 97 96 93 97 96 92 97 98 93 93 88 93 90 74 79 73 68 65 74 69 75 87 90 88 89 91 93 93
61 60 61 60 60 60 59 59 59 61 61 62 63 77 78 93 97 92 97 95 99 100 99 100 98 94 92 94 89 85 83 66 65 65 65 68 59 69 87 87 86 89 90 91 92
60 60 60 60 60 59 58 58 59 61 62 64 69 79 80 81 89 95 97 91 95 96 97 97 94 90 91 84 82 83 71 66 60 68 65 63 60 73 86 87 86 88 90 90 91
60 60 59 60 59 58 58 58 62 62 67 77 81 76 85 85 91 93 98 95 91 91 88 87 87 83 86 83 74 74 75 72 60 66 66 61 62 70 78 84 85 88 89 89 90
59 59 59 58 58 58 61 75 73 73 79 80 82 82 85 92 94 90 94 92 91 87 80 85 79 76 82 86 84 84 81 69 66 68 64 60 61 69 71 70 79 87 88 90 90
59 59 59 58 58 57 66 83 85 86 77 86 84 85 88 93 83 87 96 85 83 77 84 81 76 86 89 88 85 84 81 65 68 66 61 61 65 71 67 69 80 83 85 87 89
58 58 58 57 57 62 83 87 94 92 79 81 86 85 86 89 84 84 90 88 82 78 81 78 83 88 86 85 80 83 76 67 67 64 66 66 62 65 69 68 70 80 85 87 85
58 58 58 57 58 92 86 92 95 92 71 75 81 84 87 89 81 92 93 89 83 78 82 81 89 85 83 81 83 77 84 71 70 67 59 73 56 63 64 64 67 71 82 86 90
58 57 56 53 73 87 90 96 95 89 52 78 81 94 90 84 85 85 94 88 80 80 81 78 82 81 78 80 86 78 87 67 62 73 56 69 64 66 67 61 63 70 80 83 87
57 56 56 66 76 91 96 95 89 69 55 73 82 80 80 83 84 86 85 91 90 83 84 84 90 86 84 88 88 87 84 82 78 77 62 67 71 63 59 62 70 79 85 90 90
56 54 58 79 89 96 96 87 69 65 76 71 74 80 80 79 80 80 78 77 75 69 71 78 79 87 89 83 86 83 79 63 62 64 64 76 75 67 76 78 80 79 86 92 95
54 52 64 83 94 94 89 78 62 69 72 79 77 78 75 79 80 79 77 74 81 81 77 71 67 81 86 84 80 80 78 66 57 65 71 80 72 73 86 88 87 85 87 87 90
52 80 89 95 93 92 81 70 68 72 76 74 78 73 74 77 75 78 76 76 81 82 73 72 72 85 86 88 87 80 72 85 73 79 64 68 75 83 89 86 87 85 83 83 88
81 92 92 96 95 89 79 61 72 79 78 78 69 73 69 72 73 75 74 82 78 84 87 78 70 83 85 87 87 84 88 74 75 63 63 67 60 72 78 82 86 84 87 86 89
81 86 94 99 96 84 74 72 75 81 80 74 72 71 73 70 75 70 69 73 81 79 84 82 77 75 82 78 78 79 78 80 80 79 66 68 63 84 81 84 84 87 87 87 81
89 82 96 99 80 85 76 76 67 78 81 78 78 75 72 73 71 71 63 63 82 83 77 82 78 71 76 86 88 86 81 82 72 69 78 72 65 78 86 88 87 87 87 86 83
84 87 98 95 74 79 78 77 78 77 76 75 74 76 77 72 67 72 71 79 80 80 76 80 74 67 67 80 84 80 83 85 85 83 73 71 62 79 84 83 88 86 83 79 80
86 78 86 89 89 79 74 74 73 79 77 77 76 78 75 71 74 67 69 71 80 81 68 76 77 71 63 69 79 74 79 83 84 74 76 78 71 77 81 79 79 82 81 80 82
87 83 84 80 80 79 78 74 71 70 77 78 73 74 73 67 69 68 72 70 79 71 76 79 69 73 72 74 80 79 78 81 79 81 75 75 73 80 81 78 73 76 76 77 78
81 82 85 84 77 77 66 72 71 72 73 71 70 73 74 68 66 48 67 68 62 76 70 80 65 72 62 72 78 77 81 80 81 82 82 79 79 68 87 82 75 71 73 73 72
90 89 84 67 78 77 76 73 72 74 75 76 73 73 72 73 78 80 80 76 76 71 70 67 65 68 64 75 74 66 74 78 80 84 82 75 68 71 78 75 71 69 66 69 66

GFSSW_sfc_temp_123.txt.gz
Temp
63 63 63 64 64 64 64 64 64 63 63 63 63 63 62 62 62 66 65 77 77 81 81 85 87 86 86 82 87 86 63 60 61 60 64 73 75 82 86 82 84 87 82 80 86
63 63 63 63 63 63 63 63 63 64 63 63 63 63 62 62 61 65 79 82 82 80 84 81 81 84 78 80 82 76 62 65 69 73 69 76 78 79 76 77 80 81 84 85 86
63 62 62 62 63 63 63 63 63 63 63 63 63 63 62 62 60 73 80 82 81 81 84 86 86 84 76 81 80 77 67 76 73 77 75 76 77 83 76 71 80 78 82 85 85
62 62 62 62 62 62 62 62 62 62 62 62 62 63 63 60 61 79 80 81 81 83 83 82 80 75 75 75 82 69 73 77 74 73 71 72 81 72 74 76 85 85 86 85 83
62 62 62 62 61 62 62 62 61 61 62 62 62 63 61 61 69 84 80 80 80 80 80 79 75 77 75 76 76 71 73 77 74 75 72 74 74 71 70 84 89 88 88 85 85
61 61 61 61 61 61 61 61 61 61 61 62 62 62 57 60 89 87 83 80 83 78 79 82 80 84 80 77 74 69 70 74 77 73 72 73 71 76 75 86 86 86 83 86 86
60 60 60 61 61 61 61 60 60 60 61 62 63 65 64 66 89 89 85 79 81 80 78 86 86 82 82 76 79 71 66 71 70 69 68 72 69 68 80 84 83 84 83 84 84
60 60 60 60 60 60 60 59 59 60 61 62 63 62 58 87 86 91 89 83 85 84 84 88 90 83 78 82 78 69 67 57 64 67 67 69 60 71 79 82 80 82 84 85 86
60 60 60 59 59 59 58 59 60 62 62 64 58 57 63 82 81 87 88 86 85 83 84 94 87 76 79 70 64 61 53 57 59 67 67 67 62 71 75 82 79 81 82 84 85
60 59 59 59 58 58 58 58 63 61 63 70 72 61 72 77 83 88 90 91 84 83 82 80 74 65 66 61 55 61 60 63 58 63 65 64 64 68 71 80 79 80 82 81 83
59 59 58 58 58 57 58 62 58 58 67 67 71 75 83 85 88 87 90 85 82 75 65 72 61 58 65 71 75 74 65 62 61 65 62 60 62 65 68 72 77 77 81 80 81
59 58 58 58 57 57 54 63 73 78 67 80 81 83 87 80 77 83 87 76 73 65 71 63 60 71 78 78 76 68 65 58 61 64 62 59 61 65 67 67 74 77 81 80 82
58 58 58 57 57 54 63 74 87 85 66 77 81 82 81 79 78 78 81 78 72 67 69 62 70 80 78 75 75 64 60 60 58 63 64 60 56 58 66 67 72 74 80 81 82
58 58 57 55 54 71 75 81 84 86 58 70 73 81 84 82 75 89 86 79 74 68 71 68 79 79 74 73 74 60 64 68 61 59 51 61 48 56 61 65 67 71 76 78 82
58 58 56 56 53 68 82 90 87 78 45 77 76 89 83 75 77 79 88 80 71 73 69 66 73 72 72 75 80 61 64 63 64 57 55 56 52 56 61 60 65 69 74 76 82
58 57 56 60 56 67 80 85 83 56 51 72 80 76 74 77 80 82 80 80 81 74 73 73 82 77 75 82 80 76 63 62 60 55 48 54 53 54 56 60 67 71 72 76 77
56 55 55 65 71 84 87 78 56 50 74 71 70 77 74 73 75 76 72 66 61 53 56 69 73 78 83 69 75 72 59 45 43 46 45 56 53 59 68 70 71 71 72 75 81
54 53 56 65 76 81 80 64 50 69 68 78 76 76 71 74 74 74 69 63 70 67 60 56 55 71 78 71 66 67 65 53 43 44 50 60 54 60 74 76 74 78 75 76 78
53 64 68 77 70 73 66 54 57 66 74 72 73 67 67 75 71 70 67 65 70 70 57 59 61 77 80 80 75 66 60 73 55 53 47 52 58 66 75 72 74 74 76 75 78
59 72 79 90 86 79 63 57 66 76 76 74 63 70 61 67 66 64 65 70 71 76 70 65 55 71 77 80 78 69 72 56 57 47 43 52 55 56 61 62 68 73 74 76 78
66 69 84 93 89 70 58 63 73 80 78 71 67 65 67 65 64 59 62 70 75 73 73 65 58 63 71 65 65 65 61 60 60 59 52 46 52 64 62 66 64 66 71 76 78
74 65 88 89 67 68 66 71 66 77 79 75 72 70 67 68 61 56 60 67 78 74 64 67 59 53 61 76 78 71 66 63 52 53 58 56 54 70 67 66 67 65 69 70 80
65 73 90 86 62 67 71 76 77 74 73 73 71 73 71 66 54 61 66 75 76 72 62 63 55 49 55 64 70 65 69 61 63 59 53 56 54 65 67 63 65 66 70 69 73
65 64 74 75 76 71 68 70 71 80 76 75 71 72 68 64 65 59 65 74 76 74 70 66 57 52 51 56 66 61 68 70 60 51 54 57 56 60 63 64 65 67 69 71 74
68 69 75 67 69 71 71 71 71 70 75 74 69 72 66 57 58 59 65 66 73 71 71 62 52 58 63 68 69 66 68 70 64 62 55 59 60 60 60 59 60 61 65 72 71
64 68 75 72 72 69 64 66 71 73 69 68 66 72 69 59 60 55 60 60 58 64 64 63 54 57 56 64 69 67 70 66 68 64 64 61 56 60 62 62 60 62 62 63 68
74 75 70 65 69 67 67 71 73 72 73 76 72 67 66 69 71 67 68 67 63 60 57 54 55 51 46 59 60 57 56 60 60 64 61 57 57 62 58 58 58 61 59 63 65

GFSSW_sfc_temp_129.txt.gz
Temp
63 63 62 62 62 63 63 62 63 63 63 63 63 62 62 62 61 60 60 72 70 78 80 77 78 78 77 72 75 76 61 56 59 59 60 67 73 78 80 74 77 79 74 74 75
63 62 62 62 62 62 62 62 62 62 62 62 62 62 62 62 55 56 72 77 77 79 74 73 72 76 69 70 71 68 59 61 66 69 64 69 73 73 74 73 71 72 76 77 76
62 62 61 61 62 62 61 61 61 61 61 61 61 62 62 60 54 68 80 78 78 78 77 76 76 74 66 68 70 72 64 67 68 68 70 69 73 77 72 67 71 67 70 74 73
62 61 61 61 61 61 61 61 61 61 61 61 61 62 62 53 57 74 80 78 79 76 75 74 72 67 64 64 72 66 72 71 70 68 69 65 72 73 75 73 77 75 75 74 72
61 61 60 60 61 61 61 61 60 60 61 61 62 62 56 55 64 78 79 78 75 74 73 72 68 67 63 67 69 67 70 71 70 71 70 70 67 72 74 77 79 78 76 74 74
60 60 60 60 60 60 60 60 60 60 60 61 62 62 52 55 78 79 76 74 75 72 69 72 71 73 68 66 67 73 72 69 68 68 71 70 66 69 73 78 77 76 75 75 75
60 60 60 60 60 60 60 59 59 60 60 61 62 62 55 65 79 77 75 71 71 70 69 72 75 70 69 64 72 72 65 68 64 65 69 72 66 66 76 77 75 75 75 75 78
60 60 59 59 59 59 59 58 59 60 61 61 63 56 55 76 74 75 73 73 72 68 70 73 77 71 66 71 71 65 63 57 61 66 67 68 57 67 77 76 73 75 75 77 77
59 59 59 59 58 58 57 57 59 61 63 62 53 52 60 77 72 75 76 75 73 66 69 86 75 66 67 61 56 59 54 58 59 65 66 64 59 65 72 77 73 74 75 75 74
59 58 58 57 57 56 56 58 60 60 61 64 65 56 66 72 73 79 76 79 72 71 72 69 64 58 57 55 47 52 54 59 58 61 65 63 59 64 69 73 75 76 75 73 72
59 58 57 56 56 55 52 54 59 58 57 62 63 67 72 76 78 78 81 76 71 68 58 62 57 53 57 61 63 64 58 58 61 63 61 60 60 61 65 70 73 70 71 71 72
58 58 57 56 56 55 50 59 63 65 59 66 70 69 74 71 69 74 78 69 65 59 60 58 53 63 67 67 66 62 59 59 58 63 60 58 60 63 64 66 68 69 73 72 73
58 57 57 56 55 52 54 62 68 64 55 66 68 70 71 73 69 70 73 67 64 58 58 54 62 72 68 64 63 59 57 59 58 61 62 60 57 58 64 66 68 68 75 75 74
58 57 56 55 56 54 61 65 68 66 50 60 64 73 73 73 66 80 76 71 66 61 59 58 68 69 63 63 65 55 67 63 60 56 51 61 46 54 60 62 65 67 68 73 73
57 57 56 55 51 59 70 63 64 66 42 68 66 79 69 66 68 70 77 72 61 63 60 59 63 65 62 66 67 59 68 63 62 56 55 54 48 52 59 59 63 64 68 72 75
57 56 56 52 48 57 62 62 67 52 45 64 70 66 64 65 68 72 70 71 72 64 62 63 70 67 68 66 66 68 61 59 56 53 46 53 52 53 55 63 67 66 67 72 74
55 54 53 58 63 61 63 64 51 45 63 63 61 64 62 59 64 68 63 58 56 50 50 60 62 64 67 61 63 60 49 44 43 45 45 54 52 54 65 69 72 70 68 71 76
54 52 52 56 54 61 64 58 46 59 57 64 64 64 59 62 59 62 59 56 59 56 49 48 52 63 66 62 58 56 50 48 40 41 47 55 49 58 71 73 76 77 75 75 76
52 48 50 57 56 56 60 48 49 54 62 63 62 59 57 64 63 59 56 56 59 57 48 47 52 66 70 68 66 59 53 62 50 49 48 50 56 63 69 70 71 75 75 73 75
51 55 60 62 63 63 55 48 52 63 64 62 54 57 51 56 57 54 54 61 62 65 59 52 48 58 67 68 66 62 66 53 49 42 40 48 49 51 60 63 65 68 72 73 75
55 59 66 63 65 59 50 50 60 68 68 62 57 55 53 53 53 51 53 61 65 65 60 50 49 56 60 57 57 57 53 54 53 51 45 43 49 62 63 65 64 68 71 73 74
52 56 67 67 58 47 50 57 63 66 66 64 63 60 56 56 51 50 52 58 68 62 55 55 48 46 54 62 62 57 56 55 50 49 49 52 55 63 62 64 64 65 67 71 74
49 52 66 66 51 50 55 63 67 64 61 61 61 63 59 54 50 53 58 67 68 64 55 55 47 42 49 54 59 57 58 51 49 46 46 49 55 62 62 61 63 63 65 66 68
51 53 58 58 54 54 52 59 61 69 66 65 61 62 57 54 52 52 57 66 68 65 67 61 45 46 43 51 53 52 56 55 50 46 46 51 58 57 58 59 59 60 61 65 67
50 53 55 52 56 54 55 59 63 61 64 63 59 61 56 46 49 50 55 59 64 64 60 55 46 46 52 58 59 55 56 56 52 48 47 54 55 54 56 57 57 60 62 63 65
51 52 54 52 54 55 53 55 61 63 62 58 59 62 58 52 54 50 51 49 52 58 52 50 46 45 48 58 59 53 55 56 56 55 53 53 53 58 59 59 58 59 61 62 64
51 54 54 51 53 52 54 60 64 65 63 67 65 60 57 60 62 57 57 52 50 52 50 48 45 43 41 50 53 48 51 53 55 55 54 49 52 57 56 58 57 59 61 61 64

GFSSW_sfc_temp_135.txt.gz
Temp
62 62 62 62 62 63 63 62 62 62 62 62 62 62 62 62 61 65 71 81 78 78 80 82 83 83 85 80 79 76 63 61 60 59 63 70 72 78 80 76 78 79 78 80 78
62 62 62 61 62 62 62 62 62 62 61 61 61 62 62 62 61 66 79 77 77 78 83 82 79 82 81 78 79 75 67 66 71 65 65 70 73 74 74 74 71 73 77 78 79
62 61 61 61 61 62 62 62 62 61 61 61 61 62 62 63 66 77 80 78 78 79 84 84 84 81 78 79 77 75 68 71 71 70 70 69 72 79 75 70 74 73 73 77 78
61 61 60 61 61 61 61 61 61 61 61 60 61 62 62 62 67 81 80 78 79 82 84 83 81 77 75 75 78 71 74 75 72 72 70 67 74 73 75 75 81 80 78 77 77
61 61 60 60 60 60 61 60 60 60 61 61 61 62 63 69 74 83 78 79 81 83 81 80 78 77 74 75 76 73 71 73 74 71 70 68 70 70 75 79 81 79 78 77 79
60 60 60 60 60 60 61 59 59 59 60 61 62 63 64 70 82 80 79 80 81 82 80 81 80 80 77 73 74 74 72 72 72 71 69 66 65 66 74 79 77 77 77 78 79
60 60 60 59 60 60 59 58 58 59 60 61 62 64 66 73 81 82 82 80 81 82 79 81 84 81 78 73 77 75 69 71 70 71 67 66 60 62 75 78 76 76 77 78 79
60 60 59 58 57 57 57 57 57 59 60 61 63 63 71 80 82 81 82 79 79 82 82 82 84 81 78 78 75 71 71 64 64 68 65 63 55 65 72 76 76 76 76 77 78
59 59 59 58 58 57 56 57 60 61 62 63 64 64 73 78 79 81 84 80 78 80 82 85 83 77 77 72 69 68 62 63 61 68 65 62 57 64 69 74 75 76 77 78 79
59 59 58 58 58 57 56 59 62 63 64 66 66 67 78 77 81 79 82 82 79 79 79 78 77 74 73 72 64 63 63 63 60 61 66 64 58 63 66 69 74 77 77 78 79
59 58 58 57 57 56 58 64 70 70 66 70 72 72 77 82 84 80 83 82 81 77 71 72 72 68 70 71 71 70 67 62 60 65 61 57 60 62 64 66 70 74 78 79 81
58 58 57 57 56 55 57 75 74 74 68 72 71 72 76 79 77 79 84 77 74 68 71 71 67 72 73 72 71 70 66 61 63 66 66 58 59 65 63 65 70 76 78 80 81
58 57 57 56 55 60 66 74 74 76 68 73 75 75 78 80 77 78 81 77 72 69 69 68 70 73 73 71 69 69 66 63 65 65 66 63 57 61 63 65 66 74 79 82 81
57 57 56 54 61 65 73 73 73 73 68 71 75 77 79 80 75 83 85 80 74 69 69 71 73 72 71 70 72 66 72 69 65 64 57 63 50 59 60 61 65 69 79 81 82
57 57 55 54 62 72 73 71 72 73 53 74 76 85 80 78 78 78 84 81 72 71 72 68 70 70 68 71 73 67 72 69 66 63 60 59 57 63 65 59 61 70 73 81 84
56 56 55 56 58 70 70 72 75 66 52 69 76 74 74 75 75 78 79 82 78 72 71 71 75 74 73 70 74 72 68 66 65 61 53 58 58 59 61 64 68 67 73 79 83
55 54 54 61 75 68 70 77 66 57 69 67 68 71 71 70 72 73 72 71 69 63 64 67 69 71 73 68 71 70 68 54 54 53 51 61 53 62 73 73 75 68 76 79 82
53 52 55 61 64 66 77 72 56 63 64 72 70 69 67 69 68 70 68 67 69 68 65 62 59 67 72 70 67 68 70 61 48 47 52 60 55 66 75 80 78 79 76 76 81
52 59 63 68 62 65 75 63 63 65 69 68 69 65 64 68 69 68 66 66 68 70 63 63 62 71 72 73 73 65 62 70 61 59 54 58 64 73 76 74 71 76 76 77 80
62 68 71 67 67 75 70 56 65 68 71 70 63 65 62 64 66 66 64 69 68 70 72 65 60 70 72 74 73 71 75 61 63 51 48 54 58 63 69 72 68 73 72 80 81
66 72 71 70 70 73 65 65 66 72 72 70 66 65 64 64 64 63 63 69 71 70 72 68 64 68 69 68 68 68 67 67 68 63 56 53 59 66 66 68 72 71 73 79 81
66 68 71 71 69 60 66 65 61 73 74 73 71 69 66 64 63 63 63 67 72 72 66 66 66 61 66 70 69 70 68 69 63 59 59 59 62 67 66 68 72 72 74 77 82
63 64 73 73 64 65 64 68 70 71 72 71 69 70 68 65 61 63 65 72 72 71 68 68 62 58 61 68 70 67 66 66 66 67 58 58 64 69 69 69 68 71 72 72 78
63 65 68 68 64 67 65 66 66 71 72 72 69 69 67 64 64 63 65 70 71 70 64 68 63 60 57 60 64 62 64 64 67 63 62 63 64 64 66 65 66 66 69 71 73
61 62 62 63 64 65 64 65 67 67 72 72 68 68 67 62 62 63 66 68 70 67 67 68 61 60 63 63 64 63 63 63 64 62 60 59 60 64 64 64 64 66 67 70 72
60 59 62 63 60 62 57 64 66 68 70 69 67 68 66 63 66 62 66 66 66 68 66 63 60 59 59 63 64 61 62 63 63 61 61 59 59 64 64 65 63 64 63 66 71
59 61 61 56 61 62 64 65 66 68 70 73 72 68 66 69 70 68 69 66 67 65 63 61 61 57 54 58 58 55 62 62 62 62 63 59 63 64 62 63 61 61 62 62 68

GFSSW_sfc_temp_138.txt.gz
Temp
62 62 62 62 62 63 63 62 63 62 62 62 62 62 62 62 62 77 82 85 86 79 79 92 92 92 93 89 89 79 69 67 64 60 68 75 78 83 85 82 85 86 87 88 89
63 62 62 62 62 62 62 62 62 62 62 62 62 62 62 62 76 81 83 78 78 80 91 90 88 90 91 88 89 84 72 71 77 68 71 75 80 79 80 80 79 84 89 88 88
62 62 62 62 62 62 62 62 62 61 61 61 62 62 63 67 78 85 80 78 79 83 93 94 93 90 87 90 86 83 73 78 76 72 74 76 78 83 81 77 82 80 83 86 87
62 61 61 61 61 62 61 62 61 61 61 61 62 62 63 75 74 88 80 78 79 91 93 91 90 86 84 83 87 80 80 80 77 75 73 72 79 79 82 82 87 88 88 87 87
61 61 61 61 60 61 61 61 60 60 60 61 62 62 72 79 81 90 79 81 90 92 90 89 87 87 82 85 84 81 79 82 78 77 74 74 71 76 80 85 90 89 88 87 88
61 61 60 59 59 60 60 59 60 60 60 61 62 62 76 77 89 90 90 90 92 92 90 91 89 89 85 83 83 83 80 81 80 76 70 69 67 75 81 88 86 86 86 88 89
60 60 60 60 60 59 58 58 58 59 60 62 63 72 80 80 91 93 93 91 93 92 89 91 92 89 88 82 87 84 77 78 76 75 70 69 62 68 82 86 84 84 86 87 88
60 60 60 60 59 59 58 57 58 59 60 62 63 76 81 89 94 90 93 89 92 93 92 92 93 90 88 89 84 80 80 69 68 71 68 69 58 67 78 81 83 84 85 86 87
59 60 59 59 59 59 58 58 61 61 62 64 74 78 80 80 86 93 93 88 89 91 91 90 90 88 86 82 79 77 73 69 63 71 65 62 58 67 75 77 82 84 85 86 87
59 59 59 58 58 57 57 58 62 63 69 75 78 78 86 84 89 89 93 91 87 88 86 86 87 83 84 81 71 74 72 72 66 64 66 58 59 65 70 67 79 85 86 86 87
59 58 58 58 56 56 62 76 80 78 80 80 83 82 85 91 93 89 92 90 89 87 80 84 80 76 80 80 81 79 76 70 70 70 64 59 59 64 66 66 70 80 86 87 88
58 58 58 57 56 56 69 86 83 83 79 84 82 83 87 90 83 86 92 83 82 78 81 78 76 81 82 81 78 78 73 70 71 73 73 68 64 66 64 64 65 82 82 86 89
58 58 57 56 56 64 83 84 89 86 80 82 86 85 87 90 83 84 89 85 80 76 78 77 80 81 80 78 76 77 74 72 71 72 76 70 67 62 62 64 69 75 85 86 89
58 57 56 54 64 85 86 86 88 85 78 76 82 85 88 89 80 90 92 87 81 76 78 78 81 78 78 77 79 75 80 76 72 73 68 73 59 64 64 61 68 72 84 86 88
57 56 56 53 76 86 85 89 90 86 62 79 82 93 90 84 84 84 92 87 78 77 79 75 77 76 75 78 81 76 80 76 74 75 70 69 63 68 71 59 63 70 81 88 92
56 55 55 66 77 86 88 88 85 72 58 75 82 81 81 83 83 85 85 90 87 79 80 79 84 81 80 80 82 81 76 74 75 73 64 69 67 71 65 73 65 67 78 85 91
54 53 57 74 87 88 88 86 73 68 77 72 75 80 80 78 78 80 78 78 77 70 71 76 78 82 82 77 81 80 75 63 62 62 65 72 66 72 78 80 82 73 75 82 88
53 52 61 77 85 84 87 80 63 70 72 80 78 78 75 78 77 78 76 74 78 77 76 71 66 78 82 80 76 76 78 66 56 61 64 68 63 71 83 86 87 88 84 78 87
52 77 83 86 82 82 82 71 73 73 77 75 78 73 73 76 77 76 75 75 76 79 70 71 69 81 81 82 82 76 69 82 67 72 67 71 71 79 83 83 85 86 85 79 86
77 86 87 85 83 85 79 64 75 80 80 79 70 74 69 73 73 74 73 77 75 79 82 74 67 79 80 82 82 79 83 70 72 53 56 64 65 69 76 78 82 77 84 85 88
79 82 83 86 86 82 73 76 77 82 81 77 73 72 73 72 74 73 72 76 78 78 81 79 74 73 78 75 75 75 74 76 71 58 57 61 65 80 76 75 77 73 79 84 83
82 76 83 86 77 82 77 78 66 81 83 80 79 77 74 74 72 72 71 75 79 80 74 78 76 69 73 80 81 81 78 76 65 65 71 67 68 76 74 74 80 78 74 74 83
78 82 86 85 72 75 78 79 80 80 81 79 77 78 78 74 68 72 73 78 79 78 75 78 72 64 68 76 79 75 78 80 81 80 67 64 66 77 75 74 77 80 75 68 72
76 73 79 81 81 78 76 76 76 81 81 82 78 79 76 73 76 71 72 77 78 79 66 73 75 68 64 64 72 69 74 76 78 71 72 70 72 76 74 73 73 75 76 71 77
78 75 72 72 76 78 77 76 74 74 80 83 76 77 74 69 71 70 74 76 78 68 75 77 67 70 72 73 73 72 72 74 72 76 69 72 69 78 76 74 71 73 75 75 76
71 72 78 76 72 74 66 73 74 78 78 76 75 78 76 71 73 69 74 73 72 76 75 75 67 68 66 73 72 70 74 73 74 74 75 74 70 76 76 72 71 71 72 72 77
76 76 71 65 74 73 75 75 76 79 80 83 80 77 74 77 81 81 83 79 78 74 72 70 69 65 61 67 67 63 71 73 75 75 75 71 72 73 71 71 64 66 66 64 67

GFSSW_sfc_temp_141.txt.gz
Temp
63 63 63 62 63 63 63 63 63 63 63 63 63 62 63 63 63 79 87 85 89 82 82 99 98 98 99 96 95 90 67 67 64 66 73 82 82 87 90 87 90 91 91 93 96
63 63 62 62 62 63 62 62 63 63 62 63 62 63 63 63 78 88 82 81 80 81 94 94 94 96 94 94 95 82 70 71 80 70 77 79 81 84 85 85 85 88 94 94 95
63 62 62 62 62 62 62 62 62 62 62 62 62 63 63 67 82 91 81 80 80 83 99 100 99 96 93 96 92 86 76 81 79 71 76 78 83 88 85 82 87 86 88 90 92
62 62 62 61 62 62 62 62 62 62 61 62 62 63 63 77 77 92 81 79 80 92 98 96 96 91 91 87 93 80 86 86 80 77 74 74 84 82 87 83 91 92 91 91 91
62 61 61 61 61 61 61 61 60 61 61 62 62 63 73 81 86 95 80 82 93 96 96 95 92 93 88 91 90 85 84 86 84 82 81 79 76 82 82 89 94 93 92 91 92
61 61 61 60 61 61 60 60 60 60 61 62 63 62 78 81 96 97 96 94 98 97 96 97 95 96 92 90 85 88 86 83 84 80 74 73 73 79 84 92 91 91 91 92 92
61 61 61 60 60 60 60 59 59 60 60 62 64 74 86 84 98 100 99 98 100 100 95 99 99 94 94 90 93 90 82 85 76 77 71 70 64 70 80 91 88 88 89 88 90
60 60 60 60 60 60 60 59 59 60 61 62 64 80 85 96 101 97 99 96 99 100 100 100 99 95 94 93 90 86 85 72 75 72 71 69 56 67 72 85 85 84 85 86 86
60 60 60 60 59 58 57 58 61 63 62 65 74 83 84 86 92 99 100 93 96 98 98 97 95 92 93 86 83 84 68 64 69 75 65 62 58 67 77 82 80 84 86 85 89
59 59 59 59 58 57 56 58 62 63 69 83 87 84 91 88 94 96 99 97 92 93 91 90 91 87 89 85 68 58 76 75 67 68 65 61 59 64 69 75 73 85 87 86 88
59 58 58 58 57 56 63 81 81 82 87 87 89 87 90 95 98 94 97 95 94 90 83 88 83 80 85 87 82 69 72 65 74 75 71 66 63 62 65 70 72 73 78 85 87
59 58 58 57 56 56 68 92 90 92 84 92 91 91 93 97 87 91 98 88 86 82 87 83 78 88 89 86 84 84 75 72 76 78 77 69 65 63 63 64 69 76 72 81 89
58 58 57 56 56 66 92 91 98 97 85 87 92 91 91 95 87 88 94 90 85 82 83 81 85 88 83 82 81 83 78 73 71 78 81 75 65 63 64 64 67 74 78 71 73
58 57 56 55 64 97 93 96 100 96 78 80 86 90 92 94 85 95 97 92 86 82 83 84 88 81 82 81 84 78 85 81 77 77 55 80 63 67 67 62 63 71 69 78 82
58 57 55 53 80 92 94 101 100 93 64 83 87 99 94 89 88 88 97 91 83 82 83 80 80 80 80 82 85 78 83 80 79 77 75 70 72 66 72 61 62 70 78 77 79
57 56 54 71 83 96 100 100 95 75 62 79 87 85 85 88 87 89 89 94 92 83 85 83 89 87 86 87 86 88 81 80 80 77 67 72 74 63 66 71 66 70 79 83 81
56 54 57 81 93 100 99 92 75 70 83 77 80 85 85 83 83 85 82 82 80 74 75 80 81 87 87 81 86 84 80 67 64 66 67 75 74 70 81 82 79 74 78 86 89
54 52 65 86 97 97 94 83 66 76 78 85 83 83 79 83 83 82 81 79 83 83 80 75 69 82 87 83 80 80 81 69 48 61 57 76 69 66 85 89 84 82 80 86 91
53 82 89 96 95 94 85 73 75 79 83 81 82 78 78 81 81 81 80 81 82 84 73 75 74 86 87 88 86 79 75 87 72 74 66 68 76 84 86 84 77 78 85 86 87
78 93 94 98 97 91 81 68 81 85 85 84 76 79 75 79 77 79 77 82 80 84 88 80 70 83 85 87 87 83 79 74 77 57 56 62 70 64 79 77 80 85 85 86 88
80 86 93 99 96 85 74 80 83 88 87 82 79 77 79 77 79 78 78 82 83 83 86 84 78 74 82 79 78 79 78 78 79 66 50 53 58 83 81 83 85 82 80 85 87
87 80 94 97 80 84 80 85 71 87 88 85 84 82 79 80 77 77 76 80 85 85 78 83 80 73 74 86 86 71 63 78 72 64 68 49 53 83 82 83 85 82 80 84 78
82 88 94 94 74 79 84 84 85 85 85 83 81 83 84 79 72 77 78 84 83 83 78 82 76 69 72 80 85 79 83 83 63 68 62 56 60 84 82 82 86 82 80 76 77
81 77 86 86 88 83 81 80 80 88 86 87 83 84 80 78 80 75 76 82 83 83 71 78 77 72 67 67 75 72 74 73 75 51 68 68 70 79 79 77 79 82 82 74 71
82 80 84 77 81 83 83 82 79 79 85 87 81 81 78 74 75 74 79 81 83 71 78 81 70 74 76 78 78 76 62 61 74 78 70 69 72 81 83 80 78 80 81 77 70
76 78 84 81 82 81 74 78 78 82 82 80 78 81 81 75 77 73 78 78 77 82 79 80 69 72 69 76 77 74 78 79 76 75 76 67 71 83 82 80 76 77 78 76 74
84 84 78 72 79 79 79 80 79 83 85 87 84 82 79 81 85 86 87 86 85 78 77 74 73 69 64 74 73 67 74 77 78 80 77 64 66 79 77 78 71 71 70 71 69

GFSSW_sfc_temp_144.txt.gz
Temp
64 64 63 63 63 63 63 63 63 64 63 63 63 63 63 63 63 76 83 86 88 83 83 94 98 98 99 94 94 81 61 61 66 61 72 84 81 87 87 88 90 91 89 90 96
63 63 63 63 63 63 63 63 63 63 63 63 63 63 63 63 74 83 85 83 83 83 92 93 94 97 92 95 95 70 60 66 79 68 65 80 72 85 85 86 81 87 92 94 95
63 63 63 62 63 63 63 63 63 63 62 62 63 63 63 66 76 88 81 82 82 83 93 96 99 97 90 96 89 80 67 79 78 77 72 76 78 89 82 82 86 80 87 90 92
63 62 62 62 62 62 62 62 62 61 62 62 63 63 64 74 75 90 81 81 81 91 94 96 95 90 88 86 91 82 87 83 80 78 72 75 74 81 82 76 91 91 90 90 89
62 62 62 61 61 62 62 61 61 61 61 62 63 63 71 78 87 90 81 82 91 92 92 94 92 92 85 86 90 70 84 84 82 79 77 78 75 75 83 82 94 93 90 89 87
61 61 61 61 61 61 61 60 60 60 61 62 63 63 74 78 99 98 97 93 95 94 96 97 95 97 91 90 86 77 74 84 82 80 73 72 72 79 83 93 88 90 88 89 88
61 61 61 61 61 61 61 60 60 60 61 62 63 72 78 86 100 101 99 97 100 99 96 100 101 95 95 85 86 87 75 81 79 78 72 70 67 69 77 79 88 87 88 89 86
61 61 60 60 60 60 59 58 59 61 62 63 64 76 83 99 102 99 101 98 101 102 100 103 101 94 92 90 86 74 83 67 73 73 68 69 57 67 73 72 83 87 85 81 79
60 60 60 60 59 59 58 58 61 64 65 65 71 81 84 89 93 100 101 96 98 99 99 101 96 90 92 80 79 77 67 63 60 75 65 65 56 65 69 69 72 85 82 81 74
60 59 59 59 58 58 57 58 66 65 69 81 85 82 92 88 96 98 101 99 94 94 92 90 89 84 86 83 65 61 66 63 62 70 70 66 63 63 64 68 70 78 80 79 76
59 58 58 58 57 57 64 80 81 79 85 87 90 89 91 96 99 94 98 95 94 90 81 87 81 77 83 81 80 77 69 61 73 74 70 68 63 65 65 69 68 73 77 82 85
58 58 58 57 57 56 63 83 91 94 83 94 93 94 96 99 87 92 99 89 86 80 86 83 77 87 90 89 80 78 67 59 76 77 74 69 64 67 65 67 72 73 74 78 69
58 58 57 56 56 65 88 94 102 101 83 89 93 93 92 96 88 88 94 91 85 82 83 80 85 91 88 84 81 82 73 67 71 79 80 71 62 63 65 68 73 74 75 76 70
58 58 56 54 65 94 94 100 104 101 75 81 87 91 94 95 86 97 98 92 87 82 84 83 90 84 82 80 84 76 82 81 78 76 64 79 58 63 65 64 69 74 76 73 70
58 57 55 53 72 88 97 104 103 96 61 86 88 100 96 89 89 89 98 92 83 83 84 81 83 80 79 82 87 80 85 81 80 77 75 74 69 67 68 63 70 73 78 78 72
57 56 55 73 74 90 102 103 97 73 62 81 89 86 86 89 89 91 90 94 93 85 85 84 90 87 85 88 88 89 83 81 81 76 65 74 72 63 65 66 70 76 76 79 78
56 55 56 76 88 103 102 93 73 66 85 80 82 86 86 83 84 86 83 82 79 73 74 81 83 88 89 81 86 84 78 65 62 60 55 74 72 69 72 78 78 74 74 79 80
54 53 65 81 98 100 95 81 63 78 79 88 85 84 81 84 84 84 82 79 85 83 79 74 70 82 88 82 79 80 78 67 48 49 48 66 64 71 86 87 85 78 79 83 84
53 84 85 92 93 96 84 70 72 81 86 82 85 78 79 83 82 81 81 81 84 85 73 72 73 87 88 88 86 78 74 83 71 63 60 67 69 80 87 82 82 80 82 80 85
71 86 92 101 100 92 79 65 79 89 87 85 76 82 75 79 78 80 79 84 82 85 88 79 70 83 87 88 87 83 82 70 73 51 53 59 61 51 70 74 77 77 77 79 84
76 83 99 102 99 84 71 77 84 91 88 83 80 79 80 79 80 78 78 83 85 85 86 83 77 76 83 79 77 79 75 74 73 58 57 55 54 70 61 67 76 78 78 78 79
83 76 99 101 79 81 77 82 75 88 90 86 85 83 81 82 78 79 77 81 87 86 78 84 78 70 76 86 88 82 77 77 67 48 58 63 61 66 66 69 82 83 82 86 82
76 85 98 96 73 76 83 84 88 87 86 85 83 85 86 80 73 79 80 86 86 83 76 80 75 66 70 79 84 78 80 80 78 71 55 52 62 68 74 76 84 81 81 79 78
76 76 87 88 86 81 80 81 81 89 87 88 85 87 82 78 82 76 78 84 85 83 73 78 75 70 65 69 76 72 76 80 75 66 64 62 69 66 69 73 80 79 80 75 75
77 79 86 78 80 81 82 82 80 79 87 87 82 82 80 74 77 76 80 82 84 73 80 79 69 73 75 77 78 76 76 76 73 71 64 67 65 66 58 61 80 80 80 77 75
71 74 81 78 82 81 73 78 80 83 84 80 79 82 82 76 78 74 78 79 77 80 79 81 69 72 69 76 76 73 77 78 77 75 74 60 64 69 67 64 79 81 81 78 78
80 80 76 68 77 77 78 80 80 84 86 88 85 82 80 82 87 86 86 85 85 79 77 76 72 67 62 72 72 67 75 76 78 81 76 71 69 62 61 63 74 74 77 76 74

GFSSW_sfc_temp_147.txt.gz
Temp
64 63 63 63 63 63 63 63 63 63 63 63 63 63 63 63 63 68 69 81 81 82 82 88 89 88 88 84 75 77 60 57 61 60 62 75 74 77 82 79 84 86 83 80 80
63 63 63 63 63 63 63 63 63 63 63 63 63 63 63 63 64 70 83 83 82 82 86 84 82 87 81 84 79 68 60 65 75 66 62 68 76 79 77 75 80 82 87 82 81
63 63 62 62 63 62 62 62 63 63 62 62 63 63 63 62 63 77 82 82 82 82 86 86 86 85 80 87 77 74 61 73 72 69 67 69 71 82 79 72 78 77 82 79 79
62 62 62 62 62 62 62 62 62 61 62 62 62 63 63 62 65 83 81 81 81 83 86 85 84 78 75 79 85 66 66 78 75 74 72 68 72 74 78 75 86 85 85 85 81
62 62 61 61 62 62 62 62 61 61 61 62 62 63 63 65 74 85 81 81 83 83 83 82 80 80 76 84 79 69 69 73 78 77 75 72 72 72 77 79 81 87 86 83 82
61 61 61 61 61 61 61 61 60 61 61 62 63 63 60 66 93 87 86 84 85 83 83 85 84 87 83 84 78 71 71 72 77 73 72 71 72 76 73 83 82 86 81 81 82
61 61 60 60 61 61 60 60 60 60 61 62 63 68 70 74 93 92 89 83 86 85 83 90 91 83 83 76 81 72 66 69 74 73 70 70 68 68 73 78 77 76 81 82 79
60 60 60 60 60 60 59 59 59 61 62 63 64 66 64 94 90 93 91 88 91 89 87 89 90 84 77 82 82 69 62 60 64 70 68 67 58 68 72 72 72 80 81 79 77
59 59 59 59 59 58 58 58 60 63 65 65 60 61 70 85 84 91 91 90 89 84 86 98 85 75 79 71 66 72 56 57 58 72 65 63 55 66 71 70 69 72 74 75 77
59 58 58 58 58 57 57 58 65 63 66 74 76 67 78 82 86 93 90 93 85 84 83 79 73 67 68 63 55 60 59 62 61 65 66 61 58 64 68 68 67 72 75 73 73
58 58 57 57 57 56 58 70 66 65 72 73 75 79 87 87 88 89 93 88 84 77 66 74 63 60 68 73 74 70 63 61 66 71 65 61 58 62 67 66 66 68 68 73 75
58 58 57 57 56 56 54 69 81 83 72 84 89 87 89 88 81 86 89 78 75 68 73 66 61 75 81 81 77 70 63 60 65 66 68 62 59 63 65 64 67 70 68 69 73
58 58 57 56 56 57 71 80 92 90 70 82 88 87 83 84 82 81 84 81 76 71 72 66 73 84 81 76 74 69 62 60 58 64 67 63 57 61 65 66 69 71 73 71 69
58 58 57 54 61 74 79 90 91 90 62 75 79 85 88 87 77 93 90 82 79 73 75 72 82 82 76 75 75 62 75 69 68 59 52 66 48 58 62 61 64 69 71 70 70
58 57 56 55 58 71 86 93 93 83 49 81 80 94 86 77 81 82 92 84 74 77 70 70 75 74 72 75 80 71 81 77 74 66 62 61 54 58 63 59 62 66 72 72 71
57 56 55 61 59 71 84 88 85 60 54 76 84 80 79 81 82 85 82 82 85 78 73 75 83 76 76 82 81 83 76 72 68 61 50 58 56 54 57 62 65 68 72 71 71
56 55 54 67 72 85 86 80 59 54 79 75 75 80 78 75 79 80 75 71 66 56 59 72 75 77 82 71 76 72 61 48 47 48 45 57 55 60 67 71 72 69 72 75 73
55 54 57 67 78 85 81 66 53 71 74 82 79 78 75 78 75 78 73 68 75 70 63 61 61 73 80 70 64 65 61 50 43 43 48 57 50 61 75 77 77 76 75 77 74
54 68 70 75 73 77 67 56 60 71 82 80 77 70 70 79 74 73 72 70 73 72 59 59 64 80 82 81 75 66 58 63 53 50 50 53 57 69 66 64 69 70 73 74 76
57 69 77 89 87 77 63 56 68 78 82 81 68 74 67 73 71 69 69 76 76 79 71 66 57 73 78 80 78 66 69 56 54 43 41 48 53 50 55 57 63 66 70 74 78
61 68 84 93 90 70 59 64 74 84 85 75 73 71 72 74 74 69 73 76 81 78 75 65 60 65 73 65 66 65 59 58 52 49 44 44 49 59 57 59 60 64 72 75 78
68 63 87 93 67 67 65 72 70 80 85 78 78 75 72 75 70 68 72 74 82 78 66 68 61 54 63 76 80 72 61 63 50 43 47 50 50 67 64 65 66 66 69 75 77
60 68 88 88 63 66 71 75 80 79 81 79 77 78 77 70 63 72 75 81 82 74 62 65 57 50 56 64 71 64 68 61 61 55 48 45 51 64 67 65 64 66 70 71 72
61 61 74 76 77 72 69 71 73 85 83 82 78 78 71 66 69 67 73 80 81 76 72 70 58 53 48 56 64 63 71 70 64 50 49 51 55 62 63 63 63 61 66 69 69
63 65 72 63 69 73 73 72 72 73 82 80 72 76 70 61 67 67 73 73 78 71 71 65 54 56 62 68 70 68 68 69 63 60 54 56 58 58 59 58 61 65 64 67 69
59 63 67 65 69 69 66 69 72 76 78 75 72 78 75 64 66 66 70 68 65 69 67 67 55 58 58 68 69 66 69 70 69 69 65 63 56 59 60 62 61 60 57 64 68
68 69 64 60 66 66 67 71 75 77 79 83 80 75 73 75 79 75 75 72 68 63 63 64 57 54 48 62 63 55 64 67 67 69 66 58 57 59 58 61 60 59 61 68 69

GFSSW_sfc_temp_150.txt.gz
Temp
63 63 63 63 63 63 63 63 63 63 63 63 63 63 62 62 62 65 66 77 76 81 82 83 84 84 86 75 74 72 59 56 60 59 61 71 71 77 82 80 81 82 74 77 80
63 63 62 62 62 63 62 62 63 63 63 63 62 62 62 62 59 63 77 82 82 82 81 78 78 79 71 74 74 67 60 63 72 64 62 63 68 75 72 73 75 75 77 78 78
62 62 62 62 62 62 62 62 62 62 62 62 62 62 62 61 59 72 81 81 82 81 81 80 81 78 74 76 73 71 61 70 69 69 69 67 69 77 74 69 72 69 70 74 76
62 62 61 62 62 62 62 62 62 62 61 61 62 62 63 57 62 80 81 81 81 80 80 80 78 71 72 74 78 65 68 74 71 72 71 65 69 74 78 76 78 76 75 75 73
61 61 61 61 61 61 62 61 61 61 61 61 62 63 60 62 70 84 81 81 79 80 79 77 74 71 70 75 73 66 69 75 76 74 73 73 69 71 74 83 83 80 78 76 75
60 60 60 60 61 61 61 60 60 60 61 62 62 63 59 64 85 83 81 78 80 77 77 77 76 79 75 78 73 74 73 72 75 72 72 71 71 74 72 81 82 80 75 78 75
60 60 60 60 60 60 60 60 60 60 61 62 63 66 65 71 87 82 81 78 80 79 76 81 81 76 76 67 75 74 66 70 72 71 70 68 67 64 73 80 78 80 77 77 75
59 59 58 59 60 59 59 58 59 61 62 63 64 61 63 85 83 85 80 80 81 77 78 83 83 76 75 75 74 68 63 56 66 69 68 66 58 66 70 74 72 76 77 78 76
58 58 58 58 58 58 57 58 61 62 64 65 58 59 66 84 80 87 85 83 82 78 81 94 80 70 74 68 61 66 51 55 58 70 65 63 56 64 71 70 71 71 73 74 74
58 58 58 58 57 57 56 58 64 62 64 69 72 62 71 77 80 86 85 87 80 77 78 72 67 62 62 59 51 54 56 60 59 64 65 60 58 63 67 69 68 71 73 72 75
59 58 58 58 57 56 53 62 66 64 63 70 70 73 80 80 84 83 87 81 76 70 62 66 60 56 64 64 67 69 60 60 65 68 63 59 58 62 63 68 65 67 68 69 70
58 58 58 57 57 56 52 62 70 74 67 75 79 78 84 80 74 81 83 74 69 64 64 62 57 69 72 73 70 67 62 59 64 68 66 60 59 61 62 65 66 68 68 69 70
58 58 57 56 56 54 61 71 80 76 63 75 79 79 80 81 77 76 80 73 69 63 65 59 68 76 74 70 67 62 60 59 59 65 64 63 56 60 63 65 67 70 70 70 69
58 58 56 54 61 60 68 76 78 75 56 66 70 80 81 81 74 87 83 78 70 67 68 64 75 75 71 70 68 54 70 68 63 56 51 63 47 55 60 60 63 66 70 69 69
58 57 55 54 51 62 77 75 81 73 45 75 74 87 80 74 76 77 86 76 68 71 65 66 72 69 68 71 75 66 74 68 65 58 58 55 50 55 61 58 62 65 69 71 71
57 56 55 54 49 61 68 72 72 56 49 69 78 75 72 72 74 80 77 77 78 72 68 70 76 72 72 77 75 77 71 67 62 54 45 53 53 51 54 64 62 66 70 72 71
56 55 54 60 63 67 70 68 54 48 70 69 69 72 70 66 72 75 71 63 62 54 54 67 71 72 76 68 72 68 55 46 45 45 45 50 51 53 62 68 69 65 69 73 72
54 53 53 57 55 65 67 61 45 64 65 74 72 72 68 70 68 72 66 62 65 61 56 54 55 70 75 69 64 59 56 46 40 40 45 53 47 55 65 66 68 70 70 72 72
53 55 54 59 60 63 62 48 52 61 71 70 71 64 62 72 72 68 65 63 67 66 56 55 59 74 76 74 72 60 55 59 48 44 46 48 55 64 65 64 66 66 70 72 73
50 54 60 71 67 64 56 50 58 70 73 69 60 66 60 65 66 62 62 69 71 73 66 58 54 64 74 74 72 66 66 54 48 40 39 45 49 51 59 59 66 67 65 67 73
54 60 70 74 71 59 50 51 64 74 76 68 66 62 60 65 66 64 66 70 75 72 70 56 55 61 67 62 61 62 56 51 49 45 40 40 48 58 58 60 66 63 65 66 72
51 54 73 78 59 54 52 60 64 73 76 71 72 67 64 66 63 63 64 68 74 70 62 60 53 50 58 68 72 64 58 54 48 44 44 46 51 62 60 62 65 65 68 67 70
48 53 71 74 54 53 58 65 70 71 72 70 70 72 68 63 59 65 68 74 76 70 63 60 50 45 52 58 65 62 64 54 51 46 44 44 51 60 62 62 66 66 64 62 65
48 49 59 62 62 60 57 61 63 75 73 74 73 70 65 60 61 61 66 74 75 72 69 65 49 49 45 52 56 58 64 61 56 47 45 49 54 55 60 62 62 64 63 62 62
49 51 55 50 57 60 57 62 64 64 71 70 70 71 66 55 58 59 66 67 71 70 66 60 50 50 55 61 63 60 63 64 57 55 52 56 54 56 57 58 61 62 64 65 63
49 51 54 53 57 59 56 56 63 67 67 68 67 72 69 61 64 60 64 58 61 63 62 58 51 50 53 62 61 59 64 63 63 62 58 55 53 58 58 60 59 62 63 65 65
54 57 54 51 53 54 57 61 63 65 70 75 74 69 67 70 71 70 70 66 67 63 59 58 53 48 45 56 58 51 59 61 61 61 60 53 55 57 57 60 60 61 63 65 65

GFSSW_sfc_temp_153.txt.gz
Temp
62 62 62 62 63 63 63 63 63 62 62 63 62 62 62 62 62 61 65 77 75 80 81 80 80 79 78 70 76 73 59 57 58 58 61 65 64 73 80 74 78 77 74 74 74
62 62 62 62 62 62 62 62 62 62 62 62 62 62 62 62 57 62 76 80 79 81 79 78 75 79 68 71 72 67 58 62 69 66 63 64 65 71 70 74 71 72 75 75 74
62 62 62 62 62 62 62 62 62 62 61 61 61 62 62 60 57 73 80 80 81 81 79 78 80 77 65 68 69 67 62 69 68 69 69 65 65 75 69 67 71 67 70 73 72
61 61 61 61 62 62 62 62 62 61 61 61 61 62 62 56 60 78 81 80 81 79 78 77 80 69 65 63 74 66 70 72 69 71 67 65 71 72 72 73 78 74 74 73 71
60 60 60 60 61 61 61 61 61 60 61 61 62 62 58 60 71 82 81 80 77 78 76 76 74 68 65 73 71 68 71 73 73 72 70 68 66 70 71 76 79 77 74 72 72
59 59 59 59 60 61 61 60 60 60 61 62 62 63 57 62 82 80 78 76 77 74 74 75 77 74 71 69 68 70 71 71 73 72 69 67 68 73 70 76 75 74 70 72 73
59 59 58 58 58 59 60 59 60 60 61 62 63 64 63 72 83 79 76 73 74 75 74 78 77 72 72 67 73 72 64 67 69 70 69 69 65 64 70 76 73 72 71 70 74
59 59 59 59 59 59 58 58 59 60 61 62 64 60 63 82 78 79 75 76 77 75 74 78 77 72 73 73 71 64 64 59 66 66 67 65 54 65 68 72 71 71 73 73 73
59 59 59 59 59 58 57 58 60 62 63 65 56 57 66 81 77 80 80 80 78 72 74 88 77 68 69 63 56 64 52 55 61 68 65 62 57 64 68 71 71 71 72 71 70
59 58 58 58 58 57 56 59 64 62 63 67 69 60 70 72 77 83 81 82 75 74 74 71 64 60 58 57 48 52 53 58 57 63 64 59 57 62 65 69 68 70 71 72 70
59 58 58 57 57 56 53 57 64 63 61 68 69 72 75 76 80 80 83 79 73 70 59 63 59 55 62 63 62 62 58 57 62 66 62 58 58 60 63 65 64 66 68 67 70
58 58 58 57 56 55 51 64 67 69 62 73 75 74 78 77 71 76 78 71 66 60 62 59 54 65 69 69 67 64 58 57 62 67 64 59 58 62 62 64 65 65 67 70 68
58 58 57 56 56 55 60 66 72 66 59 71 73 74 74 78 74 74 78 70 66 60 61 57 65 72 69 65 64 60 58 57 59 64 64 61 57 58 61 65 66 67 68 70 68
58 58 56 54 60 56 65 68 69 69 54 64 67 78 78 76 70 83 80 75 67 65 63 61 70 70 65 65 65 53 68 66 63 55 50 60 47 56 60 60 63 67 66 68 68
58 57 55 54 53 60 73 65 69 70 45 71 71 82 74 72 70 74 80 73 66 68 64 64 67 67 65 67 69 64 71 66 62 56 53 56 51 53 58 58 61 64 69 68 68
57 56 55 52 48 59 63 64 69 55 47 66 75 70 69 68 72 75 75 73 74 67 63 67 73 70 69 72 71 72 65 60 57 50 45 53 51 50 52 60 65 65 68 70 71
56 55 54 58 61 60 63 66 54 46 67 65 66 67 65 64 68 70 67 62 60 53 53 63 65 70 74 64 67 62 53 42 41 41 42 47 49 52 59 63 65 65 67 71 72
54 53 52 55 55 61 64 60 45 61 62 68 67 66 65 67 65 67 63 60 61 59 53 52 54 64 71 67 62 56 54 46 40 40 43 48 45 54 64 67 67 69 68 71 72
53 51 51 55 58 60 62 48 52 57 66 67 65 61 57 67 66 65 61 59 64 63 56 51 56 70 71 70 69 57 52 55 45 42 44 46 53 61 65 64 65 65 66 68 71
50 50 55 61 62 62 57 49 55 65 68 65 55 62 55 60 63 61 61 65 67 69 63 58 52 61 69 71 68 60 62 52 47 39 37 44 47 48 59 62 64 64 63 65 70
53 55 66 61 63 61 52 49 59 69 72 63 59 58 59 60 61 60 60 66 70 67 64 56 54 59 63 59 57 58 52 48 47 44 40 38 44 57 60 62 60 61 64 65 68
50 52 66 66 57 48 52 55 62 66 68 67 64 63 63 63 58 59 62 66 73 68 60 56 52 48 54 64 63 59 54 51 47 42 42 43 47 62 62 62 63 63 64 64 67
47 47 63 66 51 49 54 62 66 63 65 65 63 66 65 62 57 62 65 70 71 67 62 60 49 45 52 56 61 58 57 48 47 44 42 43 48 60 60 61 63 63 63 62 64
50 49 55 57 54 52 52 58 61 69 68 68 67 64 60 59 57 60 63 70 71 69 67 63 46 48 45 49 53 53 58 56 50 45 44 46 50 55 58 60 62 64 64 64 63
48 50 52 47 52 52 52 58 60 59 66 68 63 63 62 55 55 57 62 62 69 66 62 58 49 46 49 56 58 58 58 57 53 51 51 52 53 56 57 58 60 63 65 65 63
49 49 51 48 51 52 49 51 57 60 59 62 62 67 63 58 62 60 61 56 60 59 57 54 49 49 48 57 58 56 60 58 58 56 53 50 52 57 58 59 59 62 63 63 63
51 52 51 48 49 50 51 55 60 60 62 66 67 63 63 66 68 68 67 65 66 61 55 54 50 47 43 52 55 49 55 56 57 58 56 51 55 56 56 58 58 59 61 62 63